Tracking 27112 objects as of 26-Mar-2023
HD Live streaming from Space Station
objects crossing your sky now

STARLINK-2506

Track STARLINK-2506 now!
10-day predictions
STARLINK-2506 is classified as:


NORAD ID: 48315
Int'l Code: 2021-036AR
Perigee: 553.8 km
Apogee: 555.0 km
Inclination: 53.1 °
Period: 95.6 minutes
Semi major axis: 6925 km
RCS: Unknown
Launch date: April 29, 2021
Source: United States (US)
Launch site: AIR FORCE EASTERN TEST RANGE (AFETR)
Your satellite tracking list
Your tracking list is empty




NASA's NSSDC Master Catalog

Two Line Element Set (TLE):
1 48315U 21036AR  23085.20989916  .00030497  00000-0  20583-2 0  9998
2 48315  53.0544 257.5803 0000906  57.0321 303.0755 15.06384226106116
Source of the keplerian elements: AFSPC